Tiempo cada hora Abakanovo

Hoy, 19 Octubre, Lunes

Tiempo Temperatura Precipitaciones Viento Presión Humedad
00:00 0°C° 0 mm 4 mps 728 mmHg 89%
01:00 0°C° 0 mm 4 mps 729 mmHg 90%
02:00 0°C° 0 mm 4 mps 730 mmHg 91%
03:00 0°C° 0 mm 4 mps 730 mmHg 89%
04:00 0°C° 0 mm 4 mps 730 mmHg 88%
05:00 0°C° 0 mm 4 mps 731 mmHg 86%
06:00 0°C° 0 mm 4 mps 731 mmHg 86%
07:00 0°C° 0 mm 4 mps 731 mmHg 87%
08:00 0°C° 0 mm 5 mps 732 mmHg 86%
09:00 0°C° 0 mm 5 mps 732 mmHg 85%
10:00 +1°C° 0 mm 5 mps 732 mmHg 83%
11:00 +1°C° 0 mm 5 mps 732 mmHg 82%
12:00 +1°C° 0.2 mm 5 mps 732 mmHg 79%
13:00 +1°C° 0.2 mm 5 mps 732 mmHg 77%
14:00 +1°C° 0 mm 4 mps 732 mmHg 77%
15:00 +1°C° 0 mm 4 mps 732 mmHg 78%
16:00 +1°C° 0 mm 4 mps 732 mmHg 78%
17:00 0°C° 0 mm 4 mps 732 mmHg 78%
18:00 0°C° 0.1 mm 5 mps 732 mmHg 79%
19:00 +1°C° 0.1 mm 5 mps 732 mmHg 80%
20:00 +1°C° 0.1 mm 5 mps 732 mmHg 82%
21:00 0°C° 0.1 mm 5 mps 732 mmHg 83%
22:00 0°C° 0.1 mm 5 mps 732 mmHg 84%
23:00 0°C° 0.1 mm 5 mps 733 mmHg 85%

Mañana, 20 Octubre, Martes

Tiempo Temperatura Precipitaciones Viento Presión Humedad
00:00 0°C° 0.2 mm 5 mps 733 mmHg 88%
01:00 -1°C° 0.2 mm 5 mps 733 mmHg 92%
02:00 -1°C° 0.2 mm 5 mps 734 mmHg 95%
03:00 -1°C° 0.7 mm 5 mps 734 mmHg 95%
04:00 -1°C° 0.7 mm 5 mps 734 mmHg 95%
05:00 -1°C° 0.7 mm 5 mps 734 mmHg 95%
06:00 -1°C° 0.7 mm 5 mps 734 mmHg 94%
07:00 -1°C° 0.7 mm 5 mps 735 mmHg 93%
08:00 -1°C° 0.7 mm 5 mps 735 mmHg 93%
09:00 -1°C° 0.1 mm 5 mps 736 mmHg 90%
10:00 0°C° 0.1 mm 5 mps 737 mmHg 87%
11:00 0°C° 0.1 mm 5 mps 737 mmHg 84%
12:00 0°C° 0.1 mm 5 mps 738 mmHg 83%
13:00 0°C° 0.1 mm 5 mps 739 mmHg 81%
14:00 +1°C° 0.1 mm 4 mps 740 mmHg 79%
15:00 0°C° 0.1 mm 4 mps 740 mmHg 81%
16:00 +1°C° 0.1 mm 3 mps 741 mmHg 83%
17:00 0°C° 0.1 mm 3 mps 741 mmHg 85%
18:00 0°C° 0.1 mm 3 mps 741 mmHg 87%
19:00 +1°C° 0.1 mm 2 mps 742 mmHg 88%
20:00 +1°C° 0.1 mm 2 mps 742 mmHg 89%
21:00 -1°C° 0 mm 2 mps 742 mmHg 91%
22:00 -1°C° 0 mm 2 mps 742 mmHg 92%
23:00 0°C° 0 mm 1 mps 742 mmHg 94%

Pasado mañana, 21 Octubre, Miércoles

Tiempo Temperatura Precipitaciones Viento Presión Humedad
00:00 0°C° 0 mm 1 mps 742 mmHg 94%
01:00 0°C° 0 mm 1 mps 743 mmHg 94%
02:00 0°C° 0 mm 1 mps 743 mmHg 93%
03:00 0°C° 0 mm 1 mps 743 mmHg 93%
04:00 0°C° 0 mm 1 mps 742 mmHg 92%
05:00 0°C° 0 mm 1 mps 742 mmHg 91%
06:00 +1°C° 0 mm 1 mps 742 mmHg 92%
07:00 -1°C° 0 mm 2 mps 742 mmHg 92%
08:00 +1°C° 0 mm 2 mps 741 mmHg 92%
09:00 +1°C° 0.2 mm 2 mps 741 mmHg 94%
10:00 +1°C° 0.2 mm 2 mps 741 mmHg 95%
11:00 +2°C° 0.2 mm 2 mps 740 mmHg 96%
12:00 +2°C° 0.2 mm 2 mps 740 mmHg 97%
13:00 +2°C° 0.2 mm 2 mps 740 mmHg 97%
14:00 +2°C° 0.2 mm 2 mps 740 mmHg 97%
15:00 +2°C° 0.1 mm 2 mps 739 mmHg 97%
16:00 +2°C° 0.1 mm 2 mps 739 mmHg 98%
17:00 +2°C° 0.1 mm 2 mps 739 mmHg 98%
18:00 +3°C° 0 mm 2 mps 739 mmHg 98%
19:00 +3°C° 0 mm 2 mps 739 mmHg 98%
20:00 +4°C° 0 mm 1 mps 739 mmHg 98%
21:00 +4°C° 0 mm 1 mps 739 mmHg 98%
22:00 +4°C° 0 mm 1 mps 739 mmHg 98%
23:00 +4°C° 0 mm 1 mps 738 mmHg 98%

22 Octubre, Jueves

Tiempo Temperatura Precipitaciones Viento Presión Humedad
00:00 +3°C° 0 mm 2 mps 738 mmHg 98%
01:00 +3°C° 0 mm 2 mps 738 mmHg 98%
02:00 +3°C° 0 mm 2 mps 739 mmHg 98%
03:00 +3°C° 0 mm 2 mps 738 mmHg 97%
04:00 +3°C° 0 mm 2 mps 738 mmHg 97%
05:00 +3°C° 0 mm 3 mps 737 mmHg 97%
06:00 +3°C° 0 mm 3 mps 737 mmHg 96%
07:00 +3°C° 0 mm 3 mps 737 mmHg 96%
08:00 +3°C° 0 mm 3 mps 736 mmHg 95%
09:00 +4°C° 0.3 mm 4 mps 736 mmHg 95%
10:00 +4°C° 0.3 mm 4 mps 735 mmHg 94%
11:00 +4°C° 0.3 mm 4 mps 734 mmHg 94%
12:00 +5°C° 1.2 mm 4 mps 734 mmHg 94%
13:00 +5°C° 1.2 mm 4 mps 734 mmHg 95%
14:00 +5°C° 1.2 mm 4 mps 733 mmHg 95%
15:00 +6°C° 0.8 mm 4 mps 733 mmHg 95%
16:00 +6°C° 0.8 mm 4 mps 733 mmHg 95%
17:00 +7°C° 0.8 mm 4 mps 732 mmHg 95%
18:00 +8°C° 0.1 mm 4 mps 732 mmHg 94%
19:00 +8°C° 0.1 mm 4 mps 733 mmHg 93%
20:00 +10°C° 0.1 mm 4 mps 733 mmHg 92%
21:00 +10°C° 0 mm 4 mps 733 mmHg 92%
22:00 +10°C° 0 mm 4 mps 733 mmHg 93%
23:00 +10°C° 0 mm 4 mps 733 mmHg 93%

23 Octubre, Viernes

Tiempo Temperatura Precipitaciones Viento Presión Humedad
00:00 +10°C° 0 mm 4 mps 733 mmHg 94%
01:00 +10°C° 0 mm 4 mps 734 mmHg 94%
02:00 +10°C° 0 mm 4 mps 734 mmHg 95%
03:00 +10°C° 0 mm 4 mps 733 mmHg 94%
04:00 +11°C° 0 mm 4 mps 733 mmHg 93%
05:00 +11°C° 0 mm 4 mps 733 mmHg 92%
06:00 +11°C° 0.1 mm 4 mps 733 mmHg 93%
07:00 +10°C° 0.1 mm 4 mps 733 mmHg 94%
08:00 +10°C° 0.1 mm 4 mps 732 mmHg 95%
09:00 +9°C° 0.6 mm 5 mps 732 mmHg 94%
10:00 +10°C° 0.6 mm 5 mps 731 mmHg 92%
11:00 +10°C° 0.6 mm 6 mps 731 mmHg 91%
12:00 +10°C° 0.5 mm 6 mps 730 mmHg 91%
13:00 +10°C° 0.5 mm 6 mps 730 mmHg 90%
14:00 +11°C° 0.5 mm 6 mps 730 mmHg 90%
15:00 +10°C° 1.3 mm 6 mps 729 mmHg 91%
16:00 +10°C° 1.3 mm 6 mps 729 mmHg 91%
17:00 +10°C° 1.3 mm 5 mps 729 mmHg 92%
18:00 +10°C° 0.7 mm 5 mps 729 mmHg 91%
19:00 +11°C° 0.7 mm 4 mps 730 mmHg 90%
20:00 +10°C° 0.7 mm 4 mps 730 mmHg 88%
21:00 +8°C° 0.1 mm 4 mps 730 mmHg 89%
22:00 +9°C° 0.1 mm 3 mps 730 mmHg 90%
23:00 +8°C° 0.1 mm 3 mps 730 mmHg 91%

24 Octubre, Sábado

Tiempo Temperatura Precipitaciones Viento Presión Humedad
00:00 +7°C° 0 mm 3 mps 731 mmHg 90%
01:00 +5°C° 0 mm 3 mps 731 mmHg 89%
02:00 +5°C° 0 mm 4 mps 731 mmHg 88%
03:00 +5°C° 0 mm 4 mps 731 mmHg 88%
04:00 +4°C° 0 mm 4 mps 731 mmHg 89%
05:00 +4°C° 0 mm 4 mps 732 mmHg 89%
06:00 +4°C° 0 mm 3 mps 732 mmHg 90%
07:00 +4°C° 0 mm 3 mps 732 mmHg 91%
08:00 +4°C° 0 mm 3 mps 733 mmHg 91%
09:00 +5°C° 0 mm 3 mps 733 mmHg 88%
10:00 +5°C° 0 mm 3 mps 734 mmHg 84%
11:00 +5°C° 0 mm 3 mps 734 mmHg 80%
12:00 +7°C° 0 mm 3 mps 735 mmHg 79%
13:00 +7°C° 0 mm 3 mps 735 mmHg 78%
14:00 +7°C° 0 mm 3 mps 735 mmHg 76%
15:00 +6°C° 0 mm 2 mps 735 mmHg 80%
16:00 +6°C° 0 mm 2 mps 735 mmHg 84%
17:00 +6°C° 0 mm 1 mps 735 mmHg 88%
18:00 +6°C° 0 mm 1 mps 735 mmHg 90%
19:00 +5°C° 0 mm 1 mps 736 mmHg 92%
20:00 +4°C° 0 mm 0 mps 736 mmHg 93%
21:00 +4°C° 0 mm 0 mps 736 mmHg 93%
22:00 +4°C° 0 mm 0 mps 736 mmHg 93%
23:00 +4°C° 0 mm 0 mps 737 mmHg 93%

25 Octubre, Domingo

Tiempo Temperatura Precipitaciones Viento Presión Humedad
00:00 +5°C° 0 mm 0 mps 737 mmHg 93%
01:00 +5°C° 0 mm 0 mps 737 mmHg 93%
02:00 +6°C° 0 mm 1 mps 737 mmHg 93%
03:00 +6°C° 0 mm 1 mps 737 mmHg 93%
04:00 +6°C° 0 mm 1 mps 737 mmHg 94%
05:00 +6°C° 0 mm 1 mps 737 mmHg 94%
06:00 +5°C° 0.1 mm 0 mps 737 mmHg 94%
07:00 +5°C° 0.1 mm 0 mps 738 mmHg 95%
08:00 +5°C° 0.1 mm 0 mps 738 mmHg 95%
09:00 +6°C° 0 mm 0 mps 738 mmHg 92%
10:00 +6°C° 0 mm 0 mps 739 mmHg 89%
11:00 +8°C° 0 mm 1 mps 739 mmHg 87%
12:00 +8°C° 0 mm 1 mps 739 mmHg 85%
13:00 +8°C° 0 mm 1 mps 739 mmHg 83%
14:00 +8°C° 0 mm 1 mps 739 mmHg 81%
15:00 +8°C° 0 mm 1 mps 739 mmHg 82%
16:00 +7°C° 0 mm 1 mps 740 mmHg 84%
17:00 +7°C° 0 mm 1 mps 740 mmHg 86%
18:00 +6°C° 0 mm 1 mps 740 mmHg 88%
19:00 +5°C° 0 mm 1 mps 740 mmHg 90%
20:00 +5°C° 0 mm 1 mps 741 mmHg 92%
21:00 +5°C° 0 mm 1 mps 741 mmHg 93%
22:00 +4°C° 0 mm 1 mps 741 mmHg 93%
23:00 +4°C° 0 mm 1 mps 741 mmHg 94%
Mostrar más

Necesitamos Su Consentimiento

Meteoprog y nuestros Proveedores de Servicios pueden almacenar y acceder a sus datos personales como cookies, identificadores de dispositivo u otras tecnologías similares de su dispositivo y procesar dichos datos para personalizar contenido y anuncios, además de ofrecer funciones de redes sociales y analizar el tráfico.

  • Almacenar y/o acceder a información en su dispositivo

    Se puede almacenar o acceder a cookies, identificadores de dispositivo u otra información de su dispositivo para los fines anteriormente indicados.

  • Anuncios y contenido personalizados, medición de anuncios y contenido, percepciones del público, y desarrollo de productos

    Los anuncios y el contenido pueden personalizarse en base a su perfil. Se pueden añadir más datos para personalizar mejor los anuncios y contenidos. Se puede medir el rendimiento de los anuncios y contenidos. Se puede obtener la percepción sobre el público que ha visto los anuncios y contenidos. Dichos datos pueden usarse para desarrollar o mejorar la experiencia del usuario, sistemas y software.

Al hacer clic en ‘Estoy De Acuerdo’ usted permitirá el uso de las cookies, identificadores de dispositivo, balizas web u otras tecnologías similares indicadas. Su configuración puede cambiarse desde el navegador de su dispositivo.

Para ciertos fines, los intereses legítimos pueden ser considerados por encima del consentimiento. Puede leer más sobre ello en nuestra Política de Privacidad y Cookies.